Weather History for 62460 - August, 2013

Change the Weather History Date:

Thursday, August 1, 2013

  Actual Average Record
Temperature  
Mean Temperature 89 °F -  
Max Temperature 100 °F 99 °F - ()
Min Temperature 78 °F 82 °F - ()
Cooling Degree Days 24    
Growing Degree Days 39 (Base 50)    
Moisture  
Dew Point 57 °F    
Average Humidity 35    
Maximum Humidity 62    
Minimum Humidity 16    
Precipitation  
Precipitation 0.00 in 0.00 in - ()
Sea Level Pressure  
Sea Level Pressure 29.67 in    
Wind  
Wind Speed 6 mph ()    
Max Wind Speed 12 mph    
Max Gust Speed -    
T = Trace of Precipitation, MM = Missing Value Source: Averaged Metar Reports

Daily Weather History Graph

Daily Weather History Graph

Search for Another Location

Airport or City:

Trip Planner

Search our weather history database for the weather conditions in past years. The results will help you decide how hot, cold, wet, or windy it might be!

Date:

Astronomy

Aug. 01, 2013 Rise Set
Actual Time 5:05 AM EET 6:32 PM EET
Civil Twilight 4:39 AM EET 6:57 PM EET
Nautical Twilight 4:09 AM EET 7:27 PM EET
Astronomical Twilight 3:37 AM EET 7:59 PM EET
Moon 12:28 AM EET (8/1) 2:20 PM EET (8/1)
Length of Visible Light 14h 17m
Length of Day
13h 27m
Waning Crescent, 25% of the Moon is Illuminated
Aug 1
Waning Crescent
Aug 6
New
Aug 14
First Quarter
Aug 21
Full
Aug 28
Last Quarter

Hourly Weather History & Observations

Time (EET) Temp. Heat Index Dew Point Humidity Pressure Visibility Wind Dir Wind Speed Gust Speed Precip Events Conditions
12:00 AM 82.4 °F 81.4 °F 53.6 °F 37% 29.62 in - NNE 4.6 mph - N/A   Clear
1:00 AM 80.6 °F 80.5 °F 55.4 °F 42% 29.62 in - North 3.5 mph - N/A   Clear
2:00 AM 78.8 °F - 50.0 °F 36% 29.62 in - North 4.6 mph - N/A   Clear
3:00 AM 80.6 °F 80.3 °F 53.6 °F 39% 29.65 in - NNE 9.2 mph - N/A   Clear
4:00 AM 82.4 °F - 50.0 °F 32% 29.65 in - NNE 11.5 mph - N/A   Clear
5:00 AM 80.6 °F 80.5 °F 55.4 °F 42% 29.65 in - North 6.9 mph - N/A   Clear
6:00 AM 82.4 °F 82.0 °F 57.2 °F 42% 29.65 in - Variable 3.5 mph - N/A   Clear
7:00 AM 89.6 °F 87.3 °F 53.6 °F 29% 29.68 in - NNE 9.2 mph - N/A   Clear
8:00 AM 91.4 °F 89.9 °F 57.2 °F 31% 29.71 in - NNE 9.2 mph - N/A   Clear
9:00 AM 95.0 °F 93.0 °F 55.4 °F 26% 29.71 in - NE 8.1 mph - N/A   Clear
10:00 AM 95.0 °F - 51.8 °F 23% 29.71 in - NNE 8.1 mph - N/A   Clear
11:00 AM 96.8 °F - 48.2 °F 19% 29.71 in - NNE 8.1 mph - N/A   Clear
12:00 PM 100.4 °F - 46.4 °F 16% 29.68 in - ENE 9.2 mph - N/A   Clear
1:00 PM 100.4 °F - 51.8 °F 20% 29.68 in - East 9.2 mph - N/A   Clear
2:00 PM 100.4 °F 98.4 °F 53.6 °F 21% 29.65 in - SE 8.1 mph - N/A   Clear
3:00 PM 100.4 °F 98.8 °F 55.4 °F 22% 29.65 in - SE 5.8 mph - N/A   Clear
4:00 PM 96.8 °F 96.2 °F 59.0 °F 28% 29.65 in - SSE 6.9 mph - N/A   Clear
5:00 PM 95.0 °F 93.0 °F 55.4 °F 26% 29.65 in - SSE 6.9 mph - N/A   Clear
6:00 PM 91.4 °F 91.4 °F 60.8 °F 36% 29.65 in - SSE 6.9 mph - N/A   Clear
7:00 PM 86.0 °F 86.6 °F 62.6 °F 45% 29.68 in - SSE 4.6 mph - N/A   Clear
8:00 PM 86.0 °F 89.4 °F 68.0 °F 55% 29.68 in - SSE 5.8 mph - N/A   Clear
9:00 PM 84.2 °F 87.3 °F 68.0 °F 58% 29.68 in - North 3.5 mph - N/A   Clear
10:00 PM 82.4 °F 85.4 °F 68.0 °F 62% 29.68 in - NNE 4.6 mph - N/A   Clear
11:00 PM 82.4 °F 85.4 °F 68.0 °F 62% 29.71 in - NNE 4.6 mph - N/A   Clear